Regional Weather Roundup
Issued by NWS Upton, NY

Current Version | Previous Version | Text Only | Print | Product List | Glossary On
Versions: 1 2 3 4 5 6 7 8 9 10 11 12 13 14 15 16 17 18 19 20 21 22 23 24 25 26 27 28
000 ASUS41 KOKX 302204 RWROKX REGIONAL WEATHER ROUNDUP NATIONAL WEATHER SERVICE NEW YORK NY 600 PM EDT SAT JUL 30 2016 NOTE: "FAIR" INDICATES FEW OR NO CLOUDS BELOW 12,000 FEET WITH NO SIGNIFICANT WEATHER AND/OR OBSTRUCTIONS TO VISIBILITY. NYZ071-072-176-178-NJZ106-104-302300- NEW YORK CITY METRO AREA CITY SKY/WX TMP DP RH WIND PRES REMARKS Central Park RAIN 74 72 93 VRB3 30.05R VSB 1 LaGuardia APRT LGT RAIN 78 73 84 S13 30.01S Kennedy INTL LGT RAIN 76 73 91 S9 30.03R FOG Newark/Liberty HVY RAIN 75 73 93 S5 30.01R FOG Bronx Bot Gard N/A 73 72 94 SE3 30.03R Wall St Helipt CLOUDY 75 73 94 S3 30.03S Teterboro LGT RAIN 76 71 85 S7 30.01S $$ NYZ177-179-078>081-302300- LONG ISLAND NEW YORK CITY SKY/WX TMP DP RH WIND PRES REMARKS Farmingdale LGT RAIN 77 73 87 SW7 30.03R MacArthur/ISP LGT RAIN 77 73 87 SW7 30.02R Shirley LGT RAIN 77 72 84 S7 30.03R Riverhead NOT AVBL Westhampton PTSUNNY 76 71 85 S7 30.04R Southhampton N/A 75 72 88 S7 29.99S Bridgehampton N/A 77 72 83 S2 30.02R East Hampton FAIR 75 71 88 S7 30.02R Montauk N/A 76 71 85 VRB6 30.04R $$ NYZ052-065-067-302300- HUDSON VALLEY CITY SKY/WX TMP DP RH WIND PRES REMARKS White Plains LGT RAIN 74 73 97 CALM 30.03R FOG Newburgh LGT RAIN 70 70 100 S12G17 30.05R FOG Montgomery HVY RAIN 71 70 96 S6 30.06R VSB 3/4 Poughkeepsie RAIN 74 69 85 S6 30.03R Albany CLOUDY 77 62 59 CALM 30.02S $$ NJZ001-105-106-008-010-013-015-019>022-104-302300- NEW JERSEY CITY SKY/WX TMP DP RH WIND PRES REMARKS Newark/Liberty HVY RAIN 75 73 93 S5 30.01R FOG Teterboro LGT RAIN 76 71 85 S7 30.01S Caldwell RAIN 74 72 93 NW5 30.02S FOG Morristown LGT RAIN 72 70 94 CALM 30.03S Somerville LGT RAIN 72 69 90 N3 30.00S Linden RAIN 75 73 91 SE3 30.03S Sussex HVY RAIN 70 70 100 CALM 30.06R VSB 3/4 Abdover N/A 70 69 97 CALM 30.05R Trenton LGT RAIN 73 71 93 NE6 29.99R FOG Millville CLOUDY 81 70 69 S7 29.98R Atlantic City MOSUNNY 80 70 71 S13 30.00R Wrightstown LGT RAIN 79 70 73 E6 29.97R Toms River CLOUDY 79 73 82 SE3 30.01R Belmar NOT AVBL $$ PAZ047>061-062-071-302300- EASTERN PENNSYLVANIA CITY SKY/WX TMP DP RH WIND PRES REMARKS Philadelphia LGT RAIN 79 71 76 S8 29.98S Allentown LGT RAIN 73 70 90 NE8 30.00F Scranton RAIN 69 67 93 NE3 30.03S FOG $$ CTZ002-004>006-009-010-012-RIZ004-006-007-MAZ004-011-015-302300- SOUTHERN NEW ENGLAND IN CT CITY SKY/WX TMP DP RH WIND PRES REMARKS Bradley INTL PTSUNNY 81 67 62 S13 30.00R Hartford PTSUNNY 78 67 68 S12 30.00R Danbury LGT RAIN 75 71 87 SW5 30.04R FOG Wtrbury/Oxford PTSUNNY 75 68 78 S6 30.07R Bridgeport LGT RAIN 79 74 84 SW8 30.02R Meriden CLOUDY 76 67 73 NW3 30.03R New Haven CLOUDY 79 72 79 S7 30.02R Chester FAIR 77 72 83 VRB7 30.04R Groton CLOUDY 76 71 85 S6 30.02R Wilimantic CLOUDY 81 69 67 S7 30.02R IN RI CITY SKY/WX TMP DP RH WIND PRES REMARKS Providence PTSUNNY 80 69 69 S12 30.01R Block Island MOSUNNY 76 70 82 S9 30.03R Westerly MOSUNNY 77 68 73 S9 30.03R IN MA CITY SKY/WX TMP DP RH WIND PRES REMARKS Boston PTSUNNY 73 65 75 E12 30.01R Worchester MOSUNNY 81 58 45 CALM 30.03S Westfield CLOUDY 84 60 44 CALM 29.99R Provincetown SUNNY 78 66 66 SE6 30.02S Nantucket PTSUNNY 70 67 90 S5 30.03R FOG $$ ANZ330-335-338-340-345-350-353-355-302300- COASTAL MARINE OBSERVATIONS STATION/POSITION TIME SKY/WX TEMP WIND PRES VSBY WAVE AIR SEA DIR/SP/G HT/PER (UTC) (F) (DEG/KT/KT) (MB) (MI) (FT/S) NY HARB ENTRANCE 2050 76 74 170/ 10/ 12 1015.4 2/ 5 20S FIRE ISLAND 2050 77 75 170/ 10/ 12 1015.4 2/ 6 GREAT SOUTH BAY NOT AVBL 23 SSW MONTAUK P 2050 74 74 170/ 6/ 8 1016.4 2/ 6 15 E BARNEGAT LI 2100 79 N/A 3/ 5 HUDSON CANYON 2050 77 78 1015.7 2/ 6 KINGS POINT 2100 76 75 1015.8 EXECUTION ROCKS 2100 76 170/ 6/ 8 N/A CENTRAL LI SOUND 2100 77 76 160/ 10/ 12 N/A 1/ 2 EASTERN LI SOUND 2100 76 72 150/ 6/ 8 N/A ROBBINS REEF 2100 75 160/ 10/ 11 1015.5 $$ >>>>>>>>>>>>>>>>>>>>>>>>>>>> KEY <<<<<<<<<<<<<<<<<<<<<<<<<<< > < > SKY/WX - Sky Condition/Present Weather < > TMP - Temperature in Fahrenheit < > DP - Dew Point in Fahrenheit < > RH - Relative Humidity in Percent < > WIND - Direction (from) and Speed in MPH < > PRES - Mean Sea Level Pressure (inches of Hg) < > WCI - Wind Chill Index < > VSB - VISIBILITY IN MILES < > HX - HEAT INDEX < > TC - TEMPERATURE IN CELSIUS < > VRB - VARIABLE WIND DIRECTION < > < >>>>>>>>>>>>>>>>>>>>>>>>>>>> KEY <<<<<<<<<<<<<<<<<<<<<<<<<<<

USA.gov is the U.S. government's official web portal to all federal, state and local government web resources and services.